Regional Weather Roundup
Issued by NWS

Home | Current Version | Previous Version | Graphics & Text | Print | Product List | Glossary On
Versions: 1 2 3 4 5 6 7 8 9 10 11 12 13 14 15 16 17 18 19 20 21 22 23 24 25 26 27 28 29 30 31 32 33 34 35 36 37 38 39 40 41 42 43 44 45 46 47 48 49 50
000
ASUS45 KBOU 242307
RWRCO

WEATHER ROUNDUP FOR COLORADO
NATIONAL WEATHER SERVICE DENVER/BOULDER CO
400 PM MST SAT JAN 24 2015

NOTE: "FAIR" INDICATES FEW OR NO CLOUDS BELOW 12000 FEET WITH NO
SIGNIFICANT WEATHER AND/OR OBSTRUCTIONS TO VISIBILITY.

COZ001>005-013-030-031-250000-
...NORTHWEST COLORADO...

CITY           SKY/WX    TMP DP  RH WIND       PRES   REMARKS
CRAIG          CLOUDY    29  16  58 CALM      30.30R
HAYDEN         CLOUDY    25  10  54 E6        30.29S WCI  18
MEEKER         CLOUDY    28  14  55 CALM      30.30S
MOUNT WERNER   NOT AVBL
STEAMBOAT SPGS CLOUDY    21  12  67 CALM      30.29S
WALDEN         CLOUDY    32  19  59 S3        30.21S
$$

COZ006>008-011-250000-
...WEST CENTRAL VALLEYS...

CITY           SKY/WX    TMP DP  RH WIND       PRES   REMARKS
GRAND JUNCTION CLOUDY    40  11  30 CALM      30.33F
MONTROSE       CLOUDY    40  11  30 NW7       30.34R
EAGLE          CLOUDY    28  12  50 CALM      30.34F
RIFLE          CLOUDY    36  11  35 CALM      30.34R
DELTA          CLOUDY    42  11  27 SW8       30.34R
NUCLA          CLOUDY    43  12  28 NW7       30.34S
$$

COZ017>023-064>068-250000-
...SOUTHWEST COLORADO...

CITY           SKY/WX    TMP DP  RH WIND       PRES   REMARKS
DURANGO        MOSUNNY   38  18  44 S6        30.24
CORTEZ         SUNNY     43  17  35 W13       30.26S
PAGOSA SPRINGS MOSUNNY   38  16  41 CALM      30.25S
TELLURIDE      PTSUNNY   41   6  23 W14       30.31R
WOLF CREEK PAS NOT AVBL
$$

COZ009-010-012-014-032>034-037-058>063-250000-
...CENTRAL COLORADO...

CITY           SKY/WX    TMP DP  RH WIND       PRES   REMARKS
ASPEN          CLOUDY    30  15  53 N3        30.28F
BUENA VISTA    MOSUNNY   43  16  33 NW21G41   30.13F
COPPER MTN     CLOUDY    25  14  63 W17G25    30.28S WCI  11
BERTHOUD PASS  CLOUDY    14   9  79 NW40G48   30.20F HAZE    WCI  -9
COTTONWOOD PAS MOSUNNY   39  16  38 W32G45    30.14F
GUNNISON       PTSUNNY    9 -11  40 CALM      30.37S
KREMMLING      CLOUDY    18   9  68 CALM      30.33R
LEADVILLE      CLOUDY    30  12  47 N16G30    30.25S WCI  19
MONARCH PASS   PTSUNNY   19   5  53 W38       30.33R WCI  -1
SALIDA         MOSUNNY   46   9  22 SW13G20   30.20F
SUNLIGHT       CLOUDY    28  14  54 CALM      30.34R
WILKERSON PASS CLOUDY    30  10  43 NW5       30.21S WCI  25
$$

COZ069>075-250000-
...SAN LUIS VALLEY/SANGRE DE CRISTO MOUNTAINS...

CITY           SKY/WX    TMP DP  RH WIND       PRES   REMARKS
ALAMOSA        CLOUDY    32  15  49 N8        30.21S WCI  25
LA VETA PASS   NOT AVBL
SAGUACHE       CLOUDY    25  12  58 CALM      30.23F
$$

COZ035-036-038>040-250000-
...NORTHERN COLORADO FRONT RANGE...

CITY           SKY/WX    TMP DP  RH WIND       PRES   REMARKS
DENVER INTL AP CLOUDY    49  19  30 W17       30.00R
DMNS CITY PARK   N/A     51  18  27 W25G32    30.00S
AURORA         CLOUDY    48  20  32 W13       30.02R
FRONT RANGE AP NOT AVBL
ERIE MUNI ARPT CLOUDY    52  17  25 W12G18    29.99F
BOULDER MUN AP CLOUDY    52  19  28 W26G37    30.00F
CENTENNIAL     CLOUDY    49  21  33 NW10      30.02R
BROOMFIELD     PTSUNNY   48  18  29 W31G37    30.02R
FORT COLLINS   CLOUDY    52  27  37 N17       29.98F
LONGMONT       CLOUDY    54  19  25 SW12G22   30.00F
$$

COZ041-046-047-076>085-087-088-250000-
...PIKES PEAK/PALMER DIVIDE AND SOUTHERN FOOTHILLS...

CITY           SKY/WX    TMP DP  RH WIND       PRES   REMARKS
COLO. SPRINGS  CLOUDY    48  19  31 N10       30.01R
A. F. ACADEMY  CLOUDY    44  20  39 N10       30.02R
ELLICOTT       CLOUDY   N/A N/A N/A NE10      30.00R
FALCON         CLOUDY    46  17  30 N9        30.04R
FORT CARSON    CLOUDY    46  25  43 W6        29.98R
LIMON          CLOUDY    47  19  33 N9        29.99R
MONUMENT HILL  CLOUDY    37  23  56 NW10      30.05R
TRINIDAD       CLOUDY    48  26  42 NW14      29.98S
$$

COZ042>045-048>051-090-091-250000-
...NORTHEAST COLORADO...

CITY           SKY/WX    TMP DP  RH WIND       PRES   REMARKS
GREELEY ARPT   CLOUDY    43  27  52 CALM      29.97S
AKRON          CLOUDY    42  27  55 NW10      29.95R
BURLINGTON     CLOUDY    48  26  42 N14G22    29.95R
WRAY           CLOUDY    46  32  56 W10       29.92S
STERLING       CLOUDY    46  32  57 NW14      29.92R
HOLYOKE        CLOUDY    48  30  49 W13G18    29.90S
FORT MORGAN    CLOUDY    48  25  40 W10G21    29.96S
$$

COZ086-089-092>099-250000-
...SOUTHEAST COLORADO...

CITY           SKY/WX    TMP DP  RH WIND       PRES   REMARKS
PUEBLO         CLOUDY    52  22  30 NW14      29.95R
LA JUNTA       CLOUDY    48  32  53 N6        29.95R
LAMAR          CLOUDY    48  34  58 MISG      29.93R
SPRINGFIELD      N/A     50  27  40 NW10      29.92S
$$



USA.gov is the U.S. government's official web portal to all federal, state and local government web resources and services.